Погода в Калниболотской

Россия / Краснодарский край     46°00′16″N   40°26′19″E
темп.,
°C
ветер,
м/с
пор.,
м/с
влажн.,
%
обл.,
%
осадки,
мм/ч
давл.,
гПа
погр.,
м
8 декабря, ср
ср800:00+7в9178716 0.0 1011454
03:00+7вюв7138685 0.0 1011434
06:00+7вюв713865 0.0 1010324
09:00+7вюв511860 0.0 1010308
12:00+11вюв676794 0.0 1009379
15:00+11в5866100 0.0 1008358
18:00+9в377854 0.0 1009166
21:00+8юв3587100 0.0 1011112
9 декабря, чт
чт900:00+9з2278100 0.0 101121
03:00+10ю3471100 0.3 101244
06:00+9зюз2274100 0.0 101320
09:00+8з358597 0.0 1015113
12:00+11з477762 0.0 1016450
15:00+12з467071 0.0 1016737
18:00+9зюз378170 0.0 1018160
21:00+8зюз41083100 0.0 1020351
10 декабря, пт
пт1000:00+9зюз41077100 0.0 1020468
03:00+9зюз3986100 0.1 1021499
06:00+9зюз4889100 0.4 1022420
09:00+8зюз379060 0.9 1023309
12:00+11з467479 0.0 1023621
15:00+12з466923 0.0 1023842
18:00+9сз118116 0.0 102410
21:00+8в22840 0.0 102415
11 декабря, сб
сб1100:00+7в22900 0.0 102428
03:00+6всв36935 0.0 1024118
06:00+5в499588 0.0 1024214
09:00+5в5108993 0.0 1026294
12:00+7в6872100 0.0 1026407
15:00+8в5867100 0.0 1026469
18:00+6в61171100 0.0 1027379
21:00+5в71374100 0.0 1028379
12 декабря, вс
вс1200:00+4в61372100 0.0 1029368
03:00+3в815768 0.0 1029375
06:00+2в715780 0.0 1028420
09:00+2в816784 0.0 1029452
12:00+5в10176545 0.0 1028572
15:00+6в9175929 0.0 1027684
18:00+5в10196465 0.0 1027630
21:00+3в102075100 0.0 1026610